CW6427 Weather Reports


Display with metric or nautical units.
time (UTC)temp
F
wind
direction
speed
MPH
gust
MPH
rain 1hr
in
rain 24hr
in
rain mn
in
humidity
%
barometer
mb
20260506040904 47 5 4.0 4.0 0.00 0.24 0.00 97 1011.2
20260506035904 47 10 2.0 5.0 0.01 0.24 0.24 97 1011.3
20260506034904 47 10 0.0 3.0 0.03 0.24 0.24 97 1011.2
20260506033903 47 37 0.0 3.0 0.05 0.24 0.24 97 1011.5
20260506032903 47 37 2.0 4.0 0.06 0.24 0.24 96 1011.5
20260506031903 47 360 1.0 4.0 0.06 0.24 0.24 96 1011.7
20260506030903 47 93 2.0 8.0 0.06 0.24 0.24 96 1012.1
20260506025903 47 355 6.0 8.0 0.05 0.23 0.23 95 1011.4
20260506024903 47 78 0.0 3.0 0.03 0.21 0.21 95 1011.7
20260506023903 47 53 1.0 5.0 0.01 0.19 0.19 94 1011.8
20260506021902 47 26 0.0 9.0 0.00 0.18 0.18 93 1011.5
20260506020902 48 333 8.0 10.0 0.00 0.18 0.18 92 1011.5
20260506015902 48 5 10.0 12.0 0.00 0.18 0.18 90 1010.8
20260506014902 48 5 10.0 12.0 0.00 0.18 0.18 89 1010.9
20260506011901 51 323 8.0 11.0 0.00 0.18 0.18 85 1010.9
20260506010901 52 326 5.0 9.0 0.00 0.18 0.18 86 1011.0
20260506005901 52 344 8.0 10.0 0.01 0.18 0.18 86 1010.6
20260506004901 52 338 6.0 8.0 0.01 0.18 0.18 87 1010.7
20260506003900 53 349 6.0 9.0 0.01 0.18 0.18 87 1010.5
20260506001900 54 16 3.0 7.0 0.03 0.18 0.18 88 1010.3
20260506000900 54 22 5.0 9.0 0.03 0.18 0.18 86 1010.2
20260505235900 55 306 7.0 14.0 0.02 0.17 0.17 86 1010.4
20260505234900 57 319 6.0 15.0 0.02 0.17 0.17 87 1010.2
20260505233859 58 339 8.0 12.0 0.02 0.17 0.17 88 1009.7
20260505232900 59 331 11.0 13.0 0.00 0.15 0.15 86 1009.2
20260505231859 60 327 13.0 13.0 0.00 0.15 0.15 87 1008.6
20260505230859 61 339 9.0 13.0 0.00 0.15 0.15 88 1008.3
20260505225859 63 303 1.0 4.0 0.00 0.15 0.15 88 1008.2
20260505224859 64 302 0.0 0.0 0.00 0.15 0.15 87 1008.3
20260505223858 64 302 0.0 2.0 0.00 0.15 0.15 85 1008.4
20260505222859 65 304 2.0 4.0 0.00 0.15 0.15 82 1008.2
20260505221858 66 107 0.0 2.0 0.00 0.15 0.15 84 1008.2
20260505220858 66 128 1.0 2.0 0.00 0.15 0.15 86 1008.1
20260505215858 65 32 2.0 3.0 0.00 0.15 0.15 87 1007.7
20260505213858 64 347 2.0 10.0 0.00 0.15 0.15 86 1007.6
20260505212858 64 221 5.0 9.0 0.01 0.15 0.15 87 1007.5
20260505211857 64 194 9.0 13.0 0.01 0.15 0.15 88 1007.2
20260505210857 63 185 8.0 10.0 0.01 0.15 0.15 90 1007.0
20260505205857 62 187 4.0 7.0 0.01 0.15 0.15 90 1006.9
20260505204857 62 192 6.0 9.0 0.01 0.15 0.15 90 1007.0
20260505202856 63 197 10.0 19.0 0.00 0.14 0.14 86 1007.5
20260505201856 64 190 11.0 14.0 0.00 0.14 0.14 85 1007.7
20260505195856 62 165 10.0 13.0 0.00 0.14 0.14 90 1007.2
20260505194856 62 145 6.0 10.0 0.00 0.14 0.14 91 1007.3
20260505193855 61 117 3.0 8.0 0.00 0.14 0.14 93 1007.2
20260505192855 61 128 7.0 7.0 0.05 0.14 0.14 93 1007.3
20260505191855 61 103 3.0 4.0 0.07 0.14 0.14 93 1007.3
20260505190855 60 146 0.0 8.0 0.07 0.14 0.14 93 1007.6
20260505185855 60 134 7.0 8.0 0.07 0.14 0.14 92 1007.3
20260505184854 60 275 6.0 8.0 0.07 0.14 0.14 91 1007.5
20260505183854 60 53 1.0 26.0 0.07 0.14 0.14 87 1006.9
20260505182854 66 327 11.0 42.0 0.02 0.09 0.09 72 1008.1
20260505180854 70 198 9.0 19.0 0.00 0.07 0.07 63 1006.3
20260505175854 70 208 11.0 20.0 0.00 0.07 0.07 64 1006.8
20260505174854 68 195 13.0 20.0 0.00 0.07 0.07 69 1006.8
20260505173853 66 176 14.0 33.0 0.00 0.07 0.07 72 1007.0
20260505171853 71 178 8.0 21.0 0.00 0.07 0.07 58 1007.2
20260505170853 71 183 7.0 24.0 0.00 0.07 0.07 57 1007.3
20260505165852 71 210 16.0 23.0 0.00 0.07 0.07 58 1007.1
20260505164852 71 219 14.0 27.0 0.00 0.07 0.07 56 1006.9
20260505163852 72 260 9.0 20.0 0.00 0.07 0.07 57 1006.8
20260505162852 71 222 7.0 22.0 0.00 0.07 0.07 60 1006.5
20260505161852 71 229 6.0 21.0 0.00 0.07 0.07 58 1006.5
20260505160852 71 312 10.0 24.0 0.00 0.07 0.07 58 1006.6
20260505152851 72 221 19.0 26.0 0.00 0.07 0.07 58 1007.2
20260505150851 71 190 12.0 30.0 0.00 0.07 0.07 60 1007.1
20260505124848 64 169 19.0 24.0 0.00 0.07 0.07 71 1007.3
20260505123848 64 224 14.0 19.0 0.00 0.07 0.07 70 1007.3
20260505122848 64 206 13.0 24.0 0.00 0.07 0.07 72 1007.4
20260505121848 63 203 14.0 23.0 0.00 0.07 0.07 74 1007.3
20260505120848 62 192 10.0 20.0 0.00 0.07 0.07 74 1007.2
20260505115847 62 187 12.0 22.0 0.00 0.07 0.07 76 1007.3
20260505114848 61 179 13.0 20.0 0.00 0.07 0.07 76 1007.3
20260505113847 61 196 15.0 21.0 0.00 0.07 0.07 75 1007.4
20260505112847 61 185 11.0 17.0 0.00 0.07 0.07 75 1007.3
20260505110847 60 186 9.0 17.0 0.01 0.07 0.07 77 1006.9
20260505101845 59 194 14.0 16.0 0.00 0.06 0.06 78 1006.8
20260505100846 58 188 8.0 15.0 0.00 0.06 0.06 79 1006.8
20260505095845 57 184 4.0 10.0 0.00 0.06 0.06 82 1006.8
20260505094845 56 184 8.0 9.0 0.00 0.06 0.06 84 1006.7
20260505093845 55 169 6.0 9.0 0.00 0.06 0.06 85 1006.6
20260505092845 55 175 6.0 9.0 0.00 0.06 0.06 86 1006.7
20260505091845 55 167 6.0 9.0 0.00 0.06 0.06 86 1006.8
20260505090844 55 184 8.0 9.0 0.01 0.06 0.06 87 1006.8
20260505085844 54 182 5.0 7.0 0.02 0.06 0.06 91 1006.8
20260505084844 54 166 0.0 3.0 0.02 0.06 0.06 91 1006.8
20260505083844 55 166 3.0 4.0 0.02 0.06 0.06 91 1006.8
20260505082844 56 166 3.0 7.0 0.02 0.06 0.06 88 1006.9
20260505080844 58 192 10.0 27.0 0.02 0.05 0.05 82 1007.4
20260505075843 55 221 9.0 9.0 0.01 0.04 0.04 87 1007.2
20260505074843 54 200 3.0 4.0 0.01 0.04 0.04 88 1007.0
20260505072843 54 178 2.0 3.0 0.02 0.04 0.04 91 1007.2
20260505071843 54 178 1.0 3.0 0.03 0.03 0.03 91 1007.2
20260505070843 55 180 2.0 4.0 0.03 0.03 0.03 91 1007.3
20260505065843 55 209 0.0 2.0 0.03 0.03 0.03 90 1007.4
20260505064842 56 209 1.0 6.0 0.03 0.03 0.03 88 1007.4
20260505063842 57 131 5.0 7.0 0.03 0.03 0.03 83 1007.5
20260505062842 58 195 6.0 13.0 0.02 0.02 0.02 80 1008.0
20260505061842 59 251 2.0 10.0 0.00 0.00 0.00 72 1008.3
20260505060842 60 197 6.0 9.0 0.00 0.00 0.00 70 1007.8
20260505055841 60 211 5.0 11.0 0.00 0.00 0.00 70 1007.5
20260505054841 60 196 9.0 16.0 0.00 0.00 0.00 69 1007.2
20260505053841 62 208 11.0 14.0 0.00 0.00 0.00 63 1007.6
20260505052841 62 177 6.0 14.0 0.00 0.00 0.00 62 1007.3
20260505051841 62 186 7.0 13.0 0.00 0.00 0.00 62 1007.3
20260505050840 62 183 6.0 15.0 0.00 0.00 0.00 62 1007.3